Location: Unspecified
(0.0000°N, 0.0000°E)
Time: 04:59:57
(UTC+00:00)

Tiros 1 - Pass Details

Date: 06 October 2020
Orbit: 630 x 663 km, 48.4° (Epoch: 28 October)

Event Time Altitude Azimuth Distance (km) Brightness Sun altitude
Rises 20:13:50 0° 324° (NW) 2,977 10.9 -36.3°
Enters shadow 20:15:04 - 325° (NW) 2,494 10.4 -36.6°
Reaches altitude 10° 20:16:10 10° 326° (NW) 2,068 - -36.9°
Maximum altitude 20:20:57 76° 51° (NE) 681 - -38.1°
Drops below altitude 10° 20:25:44 10° 137° (SE) 2,072 - -39.2°
Sets 20:28:05 0° 138° (SE) 2,983 - -39.8°
